Flag for U.S.A. Weather past 2 weeks in Wright, Florida, U.S.A.

Now
65 °F

Clear.


Feels Like: 65 °F
Forecast: 70 / 84 °F
Wind: 5 mph from North

Location: Hurlburt Field

Current Time: Oct 1, 2014 at 4:18:01 AM

Latest Report: Oct 1, 2014 at 3:58 AM


Visibility: 10 mi

Pressure: 29.89 "Hg

Humidity: 88%

Dew point: 62 °F

Location of WrightLocation

Historic Weather in Wright — Graph

°F

Wright temperature yesterday

Maximum temperature yesterday: 80 °F (at 1:58 PM)
Minimum temperature yesterday: 68 °F (at 11:58 PM)
Average temperature yesterday: 74 °F

Past Weeks' High & Low Weather Summary

 TemperatureHumidityPressure
High89 °F (Sep 22, 11:58 AM)89% (Sep 26, 5:58 AM)30.19 "Hg (Sep 26, 5:58 AM)
Low60 °F (Sep 26, 1:58 AM)39% (Sep 24, 2:58 PM)29.82 "Hg (Sep 29, 5:03 PM)
Average75 °F73%29.99 "Hg
* Reported Sep 16 2:58 AM — Oct 1 2:58 AM, Wright, Weather by CustomWeather, © 2014

Note: Actual official high and low records may vary slightly from our data, if they occured in-between our weather recording intervals... More about our weather records

Advertising

Wright weather history for previous 24 hours

 ConditionsComfort  
Time TempWeatherWind HumidityBarometerVisibility
2:58 AM
Oct 1
66 °FClear.5 mph88%29.88 "Hg10 mi
1:58 AM67 °FClear.3 mph87%29.89 "Hg10 mi
12:58 AM67 °FClear.3 mph87%29.89 "Hg10 mi
11:58 PM
Sep 30
68 °FClear.5 mph87%29.89 "Hg10 mi
10:58 PM69 °FClear.2 mph85%29.89 "Hg10 mi
9:58 PM72 °FClear.3 mph77%29.89 "Hg10 mi
8:58 PM74 °FClear.5 mph72%29.89 "Hg10 mi
7:58 PM75 °FPassing clouds.5 mph71%29.88 "Hg10 mi
6:58 PM76 °FOvercast.6 mph70%29.88 "Hg10 mi
5:58 PM77 °FOvercast.5 mph66%29.88 "Hg10 mi
4:58 PM79 °FOvercast.8 mph60%29.85 "Hg10 mi
4:03 PM79 °FOvercast.12 mph61%29.85 "Hg10 mi
3:58 PM79 °FOvercast.7 mph60%29.85 "Hg10 mi
2:58 PM80 °FOvercast.8 mph59%29.85 "Hg10 mi
1:58 PM80 °FOvercast.6 mph60%29.87 "Hg10 mi
12:58 PM78 °FOvercast.7 mph63%29.89 "Hg10 mi
11:58 AM77 °FOvercast.7 mph65%29.91 "Hg10 mi
10:58 AM76 °FOvercast.8 mph69%29.91 "Hg10 mi
9:58 AM76 °FOvercast.7 mph70%29.91 "Hg10 mi
8:58 AM74 °FOvercast.7 mph82%29.90 "Hg10 mi
7:58 AM71 °FOvercast.6 mph87%29.89 "Hg10 mi
6:58 AM70 °FOvercast.3 mph88%29.89 "Hg10 mi
5:58 AM70 °FOvercast.5 mph88%29.88 "Hg10 mi
4:58 AM70 °FClear.6 mph88%29.86 "Hg10 mi
Weather by CustomWeather, © 2014

See weather overviewHow to use our weather pages